Location: Central Falls
(41.8900°N, 71.3929°W)
Time: 08:18:49
(UTC+00:00)

Altair - Pass Details

Date: 06 December 2023
Orbit: 1501 x 1682 km, 47.2° (Epoch: 29 February)

Event Time Altitude Azimuth Distance (km) Brightness Sun altitude
Rises 10:31:05 0° 193° (SSW) 4,875 10.2 -15.8°
Reaches altitude 10° 10:34:56 10° 181° (S) 3,868 9.8 -15.1°
Maximum altitude 10:42:34 26° 130° (SE) 2,746 9.6 -13.7°
Drops below altitude 10° 10:50:01 10° 78° (ENE) 3,768 10.5 -12.4°
Sets 10:53:40 0° 67° (ENE) 4,727 10.8 -11.8°
